| time (UTC) | temp F | wind direction | speed MPH | gust MPH | rain 1hr in | rain 24hr in | rain mn in | humidity % | barometer mb |
| 20260902034230 | 74 | 117 | 0.0 | 0.0 | 0.00 | 0.00 | 0.00 | 98 | 1020.7 |
| 20260902033728 | 74 | 118 | 0.0 | 0.0 | 0.00 | 0.00 | 0.00 | 98 | 1020.8 |
| 20260902033223 | 74 | 118 | 0.0 | 0.0 | 0.00 | 0.00 | 0.00 | 98 | 1021.0 |
| 20260902032722 | 74 | 118 | 0.0 | 0.0 | 0.00 | 0.00 | 0.00 | 98 | 1020.8 |
| 20260902032217 | 74 | 118 | 0.0 | 0.0 | 0.00 | 0.00 | 0.00 | 97 | 1021.1 |
| 20260902031717 | 74 | 118 | 0.0 | 0.0 | 0.00 | 0.00 | 0.00 | 97 | 1021.0 |
| 20260902031212 | 74 | 118 | 0.0 | 0.0 | 0.00 | 0.00 | 0.00 | 97 | 1021.2 |
| 20260902030709 | 75 | 118 | 0.0 | 0.0 | 0.00 | 0.00 | 0.00 | 97 | 1021.0 |
| 20260902030208 | 75 | 118 | 0.0 | 0.0 | 0.00 | 0.00 | 0.00 | 97 | 1021.1 |
| 20260902025707 | 75 | 118 | 0.0 | 0.0 | 0.00 | 0.00 | 0.00 | 96 | 1020.9 |
| 20260902025203 | 75 | 117 | 0.0 | 0.0 | 0.00 | 0.00 | 0.00 | 96 | 1021.0 |
| 20260902024658 | 75 | 117 | 0.0 | 0.0 | 0.00 | 0.00 | 0.00 | 96 | 1021.0 |
| 20260902024153 | 75 | 118 | 0.0 | 0.0 | 0.00 | 0.00 | 0.00 | 95 | 1021.0 |
| 20260902023648 | 75 | 117 | 0.0 | 0.0 | 0.00 | 0.00 | 0.00 | 95 | 1021.1 |
| 20260902023143 | 75 | 122 | 0.0 | 0.0 | 0.00 | 0.00 | 0.00 | 95 | 1021.0 |
| 20260902022643 | 75 | 122 | 0.0 | 0.0 | 0.00 | 0.00 | 0.00 | 95 | 1020.9 |
| 20260902022139 | 75 | 122 | 0.0 | 0.0 | 0.00 | 0.00 | 0.00 | 95 | 1020.9 |
| 20260902021634 | 76 | 122 | 0.0 | 0.0 | 0.00 | 0.00 | 0.00 | 94 | 1020.8 |
| 20260902021129 | 76 | 121 | 0.0 | 0.0 | 0.00 | 0.00 | 0.00 | 94 | 1021.0 |
| 20260902020625 | 76 | 122 | 0.0 | 0.0 | 0.00 | 0.00 | 0.00 | 93 | 1020.8 |
| 20260902020120 | 76 | 121 | 0.0 | 0.0 | 0.00 | 0.00 | 0.00 | 93 | 1020.9 |
| 20260902015616 | 76 | 121 | 0.0 | 0.0 | 0.00 | 0.00 | 0.00 | 93 | 1021.0 |
| 20260902015112 | 77 | 121 | 0.0 | 0.0 | 0.00 | 0.00 | 0.00 | 92 | 1020.8 |
| 20260902014608 | 77 | 121 | 0.0 | 0.0 | 0.00 | 0.00 | 0.00 | 92 | 1020.7 |
| 20260902014103 | 77 | 121 | 0.0 | 0.0 | 0.00 | 0.00 | 0.00 | 91 | 1020.9 |
| 20260902013602 | 77 | 122 | 0.0 | 0.0 | 0.00 | 0.00 | 0.00 | 91 | 1020.7 |
| 20260902013058 | 78 | 122 | 0.0 | 0.0 | 0.00 | 0.00 | 0.00 | 90 | 1020.8 |
| 20260902012553 | 78 | 122 | 0.0 | 0.0 | 0.00 | 0.00 | 0.00 | 90 | 1020.7 |
| 20260902012048 | 78 | 122 | 0.0 | 0.0 | 0.00 | 0.00 | 0.00 | 89 | 1020.6 |
| 20260902011544 | 78 | 122 | 0.0 | 0.0 | 0.00 | 0.00 | 0.00 | 89 | 1020.6 |
| 20260902011043 | 79 | 122 | 0.0 | 0.0 | 0.00 | 0.00 | 0.00 | 88 | 1020.4 |
| 20260902010543 | 79 | 122 | 0.0 | 0.0 | 0.00 | 0.00 | 0.00 | 87 | 1020.5 |
| 20260902010039 | 79 | 122 | 0.0 | 0.0 | 0.00 | 0.00 | 0.00 | 86 | 1020.4 |
| 20260902005536 | 80 | 122 | 0.0 | 0.0 | 0.00 | 0.00 | 0.00 | 85 | 1020.5 |
| 20260902005033 | 80 | 122 | 0.0 | 0.0 | 0.00 | 0.00 | 0.00 | 84 | 1020.4 |
| 20260902004532 | 81 | 122 | 0.0 | 0.0 | 0.00 | 0.00 | 0.00 | 83 | 1020.1 |
| 20260902004028 | 81 | 122 | 0.0 | 0.0 | 0.00 | 0.00 | 0.00 | 82 | 1020.2 |
| 20260902003523 | 82 | 122 | 0.0 | 0.0 | 0.00 | 0.00 | 0.00 | 81 | 1020.3 |
| 20260902003018 | 83 | 122 | 0.0 | 0.0 | 0.00 | 0.00 | 0.00 | 80 | 1020.3 |
| 20260902002514 | 84 | 122 | 0.0 | 0.0 | 0.00 | 0.00 | 0.00 | 79 | 1020.1 |
| 20260902002009 | 85 | 122 | 0.0 | 0.0 | 0.00 | 0.00 | 0.00 | 77 | 1020.3 |
| 20260902001503 | 86 | 122 | 0.0 | 0.0 | 0.00 | 0.00 | 0.00 | 75 | 1020.4 |
| 20260902000958 | 87 | 122 | 0.0 | 0.0 | 0.00 | 0.00 | 0.00 | 73 | 1020.2 |
| 20260902000453 | 88 | 122 | 0.0 | 0.0 | 0.00 | 0.00 | 0.00 | 70 | 1020.3 |
| 20260901235948 | 89 | 122 | 0.0 | 0.0 | 0.00 | 0.00 | 0.00 | 66 | 1020.3 |
| 20260901235443 | 91 | 123 | 0.0 | 0.0 | 0.00 | 0.00 | 0.00 | 62 | 1020.3 |
| 20260901234938 | 92 | 123 | 0.0 | 0.0 | 0.00 | 0.00 | 0.00 | 59 | 1020.2 |
| 20260901234432 | 93 | 123 | 0.0 | 0.0 | 0.00 | 0.00 | 0.00 | 57 | 1020.2 |
| 20260901233927 | 94 | 156 | 1.0 | 1.0 | 0.00 | 0.00 | 0.00 | 54 | 1020.5 |
| 20260901233422 | 94 | 134 | 0.0 | 0.0 | 0.00 | 0.00 | 0.00 | 52 | 1020.4 |
| 20260901232919 | 95 | 143 | 1.0 | 1.0 | 0.00 | 0.00 | 0.00 | 52 | 1020.5 |
| 20260901232418 | 95 | 129 | 0.0 | 3.0 | 0.00 | 0.00 | 0.00 | 51 | 1020.5 |
| 20260901231914 | 95 | 138 | 1.0 | 2.0 | 0.00 | 0.00 | 0.00 | 51 | 1020.5 |
| 20260901231411 | 96 | 187 | 0.0 | 2.0 | 0.00 | 0.00 | 0.00 | 49 | 1020.6 |
| 20260901230907 | 97 | 137 | 0.0 | 1.0 | 0.00 | 0.00 | 0.00 | 48 | 1020.5 |
| 20260901230406 | 96 | 132 | 0.0 | 1.0 | 0.00 | 0.00 | 0.00 | 48 | 1020.5 |
| 20260901225901 | 96 | 169 | 1.0 | 2.0 | 0.00 | 0.00 | 0.00 | 47 | 1020.6 |
| 20260901225401 | 97 | 167 | 0.0 | 3.0 | 0.00 | 0.00 | 0.00 | 49 | 1020.6 |
| 20260901224855 | 98 | 133 | 0.0 | 3.0 | 0.00 | 0.00 | 0.00 | 48 | 1020.5 |
| 20260901224352 | 98 | 174 | 0.0 | 3.0 | 0.00 | 0.00 | 0.00 | 47 | 1020.5 |
| 20260901223848 | 98 | 175 | 2.0 | 2.0 | 0.00 | 0.00 | 0.00 | 46 | 1020.5 |
| 20260901223343 | 98 | 172 | 1.0 | 3.0 | 0.00 | 0.00 | 0.00 | 47 | 1020.5 |
| 20260901222839 | 98 | 212 | 2.0 | 6.0 | 0.00 | 0.00 | 0.00 | 47 | 1020.4 |
| 20260901222335 | 99 | 164 | 2.0 | 2.0 | 0.00 | 0.00 | 0.00 | 45 | 1020.4 |
| 20260901221831 | 98 | 207 | 2.0 | 6.0 | 0.00 | 0.00 | 0.00 | 45 | 1020.4 |
| 20260901221326 | 99 | 149 | 2.0 | 3.0 | 0.00 | 0.00 | 0.00 | 44 | 1020.3 |
| 20260901220825 | 98 | 145 | 0.0 | 1.0 | 0.00 | 0.00 | 0.00 | 45 | 1020.3 |
| 20260901220325 | 98 | 268 | 3.0 | 3.0 | 0.00 | 0.00 | 0.00 | 45 | 1020.4 |
| 20260901215824 | 100 | 172 | 1.0 | 2.0 | 0.00 | 0.00 | 0.00 | 44 | 1020.1 |
| 20260901215323 | 99 | 228 | 1.0 | 3.0 | 0.00 | 0.00 | 0.00 | 43 | 1020.3 |
| 20260901214822 | 100 | 205 | 1.0 | 5.0 | 0.00 | 0.00 | 0.00 | 42 | 1020.3 |
| 20260901214321 | 100 | 266 | 1.0 | 2.0 | 0.00 | 0.00 | 0.00 | 43 | 1020.2 |
| 20260901213816 | 100 | 96 | 0.0 | 3.0 | 0.00 | 0.00 | 0.00 | 42 | 1020.2 |
| 20260901213315 | 100 | 153 | 0.0 | 0.0 | 0.00 | 0.00 | 0.00 | 42 | 1020.1 |
| 20260901212810 | 99 | 177 | 3.0 | 3.0 | 0.00 | 0.00 | 0.00 | 42 | 1020.2 |
| 20260901212306 | 100 | 210 | 3.0 | 5.0 | 0.00 | 0.00 | 0.00 | 42 | 1020.2 |
| 20260901211801 | 99 | 154 | 1.0 | 2.0 | 0.00 | 0.00 | 0.00 | 42 | 1020.1 |
| 20260901211258 | 99 | 266 | 2.0 | 5.0 | 0.00 | 0.00 | 0.00 | 42 | 1020.2 |
| 20260901210753 | 100 | 134 | 1.0 | 2.0 | 0.00 | 0.00 | 0.00 | 42 | 1020.5 |
| 20260901210249 | 100 | 196 | 2.0 | 3.0 | 0.00 | 0.00 | 0.00 | 41 | 1020.3 |
| 20260901205744 | 99 | 180 | 0.0 | 2.0 | 0.00 | 0.00 | 0.00 | 41 | 1020.5 |
| 20260901205244 | 99 | 140 | 2.0 | 3.0 | 0.00 | 0.00 | 0.00 | 45 | 1020.5 |
| 20260901204740 | 99 | 145 | 0.0 | 2.0 | 0.00 | 0.00 | 0.00 | 42 | 1020.5 |
| 20260901204236 | 99 | 158 | 1.0 | 5.0 | 0.00 | 0.00 | 0.00 | 43 | 1020.5 |
| 20260901203731 | 99 | 280 | 3.0 | 6.0 | 0.00 | 0.00 | 0.00 | 43 | 1020.7 |
| 20260901203231 | 99 | 160 | 2.0 | 3.0 | 0.00 | 0.00 | 0.00 | 44 | 1020.6 |
| 20260901202730 | 99 | 174 | 3.0 | 6.0 | 0.00 | 0.00 | 0.00 | 44 | 1020.7 |
| 20260901202226 | 99 | 258 | 1.0 | 3.0 | 0.00 | 0.00 | 0.00 | 45 | 1020.6 |
| 20260901201721 | 98 | 227 | 1.0 | 3.0 | 0.00 | 0.00 | 0.00 | 44 | 1020.8 |
| 20260901201220 | 99 | 202 | 3.0 | 6.0 | 0.00 | 0.00 | 0.00 | 44 | 1020.7 |
| 20260901200715 | 99 | 200 | 5.0 | 8.0 | 0.00 | 0.00 | 0.00 | 43 | 1020.9 |
| 20260901200210 | 100 | 278 | 1.0 | 2.0 | 0.00 | 0.00 | 0.00 | 43 | 1020.8 |
| 20260901195708 | 99 | 210 | 2.0 | 2.0 | 0.00 | 0.00 | 0.00 | 44 | 1020.9 |
| 20260901195202 | 97 | 127 | 1.0 | 5.0 | 0.00 | 0.00 | 0.00 | 46 | 1021.0 |
| 20260901194659 | 98 | 303 | 2.0 | 3.0 | 0.00 | 0.00 | 0.00 | 43 | 1020.9 |
| 20260901194153 | 99 | 213 | 2.0 | 3.0 | 0.00 | 0.00 | 0.00 | 42 | 1020.8 |
| 20260901193648 | 99 | 198 | 3.0 | 5.0 | 0.00 | 0.00 | 0.00 | 42 | 1021.0 |
| 20260901193143 | 99 | 220 | 2.0 | 3.0 | 0.00 | 0.00 | 0.00 | 44 | 1021.1 |
| 20260901192637 | 99 | 113 | 0.0 | 5.0 | 0.00 | 0.00 | 0.00 | 43 | 1021.1 |
| 20260901192133 | 98 | 131 | 0.0 | 2.0 | 0.00 | 0.00 | 0.00 | 45 | 1021.1 |
| 20260901191629 | 97 | 252 | 2.0 | 2.0 | 0.00 | 0.00 | 0.00 | 45 | 1021.4 |
| 20260901191125 | 97 | 131 | 0.0 | 7.0 | 0.00 | 0.00 | 0.00 | 47 | 1021.2 |
| 20260901190620 | 99 | 148 | 1.0 | 7.0 | 0.00 | 0.00 | 0.00 | 44 | 1021.5 |
| 20260901190120 | 98 | 171 | 1.0 | 8.0 | 0.00 | 0.00 | 0.00 | 44 | 1021.3 |
| 20260901185618 | 98 | 135 | 1.0 | 2.0 | 0.00 | 0.00 | 0.00 | 45 | 1021.4 |
| 20260901185116 | 98 | 7 | 1.0 | 2.0 | 0.00 | 0.00 | 0.00 | 46 | 1021.6 |
| 20260901184612 | 97 | 146 | 2.0 | 6.0 | 0.00 | 0.00 | 0.00 | 50 | 1021.6 |
| 20260901184107 | 97 | 146 | 3.0 | 6.0 | 0.00 | 0.00 | 0.00 | 50 | 1021.6 |
| 20260901183602 | 98 | 145 | 4.0 | 6.0 | 0.00 | 0.00 | 0.00 | 47 | 1021.7 |
| 20260901183058 | 97 | 325 | 4.0 | 5.0 | 0.00 | 0.00 | 0.00 | 46 | 1021.7 |
| 20260901182554 | 97 | 158 | 2.0 | 7.0 | 0.00 | 0.00 | 0.00 | 49 | 1021.7 |
| 20260901182053 | 97 | 270 | 3.0 | 6.0 | 0.00 | 0.00 | 0.00 | 45 | 1021.9 |
| 20260901181553 | 96 | 292 | 1.0 | 5.0 | 0.00 | 0.00 | 0.00 | 50 | 1022.0 |
| 20260901181053 | 96 | 231 | 1.0 | 3.0 | 0.00 | 0.00 | 0.00 | 50 | 1021.8 |
| 20260901180551 | 96 | 149 | 3.0 | 5.0 | 0.00 | 0.00 | 0.00 | 52 | 1022.1 |
| 20260901180046 | 97 | 204 | 1.0 | 3.0 | 0.00 | 0.00 | 0.00 | 49 | 1022.1 |
| 20260901175540 | 97 | 207 | 2.0 | 2.0 | 0.00 | 0.00 | 0.00 | 50 | 1021.9 |
| 20260901175034 | 96 | 147 | 1.0 | 2.0 | 0.00 | 0.00 | 0.00 | 51 | 1021.9 |
| 20260901174531 | 98 | 173 | 1.0 | 5.0 | 0.00 | 0.00 | 0.00 | 51 | 1022.1 |
| 20260901174026 | 97 | 171 | 1.0 | 5.0 | 0.00 | 0.00 | 0.00 | 51 | 1022.1 |
| 20260901173520 | 97 | 154 | 1.0 | 8.0 | 0.00 | 0.00 | 0.00 | 53 | 1022.3 |
| 20260901173017 | 97 | 200 | 2.0 | 6.0 | 0.00 | 0.00 | 0.00 | 50 | 1022.1 |
| 20260901172512 | 97 | 154 | 0.0 | 2.0 | 0.00 | 0.00 | 0.00 | 51 | 1022.1 |
| 20260901172010 | 96 | 222 | 3.0 | 5.0 | 0.00 | 0.00 | 0.00 | 50 | 1022.3 |
| 20260901171509 | 95 | 161 | 2.0 | 5.0 | 0.00 | 0.00 | 0.00 | 51 | 1022.5 |
| 20260901171008 | 95 | 183 | 2.0 | 6.0 | 0.00 | 0.00 | 0.00 | 53 | 1022.3 |
| 20260901170503 | 96 | 188 | 4.0 | 6.0 | 0.00 | 0.00 | 0.00 | 51 | 1022.3 |
| 20260901170003 | 94 | 63 | 1.0 | 5.0 | 0.00 | 0.00 | 0.00 | 52 | 1022.4 |
| 20260901165457 | 94 | 1 | 3.0 | 5.0 | 0.00 | 0.00 | 0.00 | 53 | 1022.4 |
| 20260901164953 | 94 | 317 | 4.0 | 7.0 | 0.00 | 0.00 | 0.00 | 53 | 1022.7 |
| 20260901164448 | 94 | 260 | 3.0 | 6.0 | 0.00 | 0.00 | 0.00 | 53 | 1022.5 |
| 20260901163943 | 95 | 345 | 4.0 | 7.0 | 0.00 | 0.00 | 0.00 | 53 | 1022.5 |
| 20260901163438 | 94 | 155 | 3.0 | 5.0 | 0.00 | 0.00 | 0.00 | 54 | 1022.6 |
| 20260901162937 | 95 | 126 | 0.0 | 5.0 | 0.00 | 0.00 | 0.00 | 55 | 1022.6 |
| 20260901162431 | 94 | 18 | 4.0 | 6.0 | 0.00 | 0.00 | 0.00 | 55 | 1022.5 |
| 20260901161926 | 95 | 303 | 2.0 | 5.0 | 0.00 | 0.00 | 0.00 | 55 | 1022.5 |
| 20260901161425 | 93 | 148 | 0.0 | 1.0 | 0.00 | 0.00 | 0.00 | 57 | 1022.6 |
| 20260901160920 | 95 | 265 | 5.0 | 8.0 | 0.00 | 0.00 | 0.00 | 55 | 1022.7 |
| 20260901160416 | 95 | 140 | 2.0 | 5.0 | 0.00 | 0.00 | 0.00 | 55 | 1022.7 |
| 20260901155916 | 95 | 110 | 2.0 | 5.0 | 0.00 | 0.00 | 0.00 | 55 | 1022.8 |
| 20260901155416 | 95 | 146 | 2.0 | 5.0 | 0.00 | 0.00 | 0.00 | 55 | 1023.1 |
| 20260901154913 | 95 | 308 | 4.0 | 6.0 | 0.00 | 0.00 | 0.00 | 55 | 1022.9 |
| 20260901154411 | 93 | 296 | 4.0 | 6.0 | 0.00 | 0.00 | 0.00 | 59 | 1022.8 |
| 20260901153907 | 95 | 186 | 2.0 | 3.0 | 0.00 | 0.00 | 0.00 | 58 | 1022.8 |
| 20260901153406 | 94 | 200 | 2.0 | 3.0 | 0.00 | 0.00 | 0.00 | 58 | 1022.9 |
| 20260901152900 | 93 | 235 | 4.0 | 7.0 | 0.00 | 0.00 | 0.00 | 60 | 1022.8 |
| 20260901152355 | 92 | 309 | 3.0 | 6.0 | 0.00 | 0.00 | 0.00 | 59 | 1022.7 |
| 20260901151849 | 93 | 204 | 3.0 | 6.0 | 0.00 | 0.00 | 0.00 | 60 | 1022.7 |
| 20260901151344 | 92 | 118 | 1.0 | 7.0 | 0.00 | 0.00 | 0.00 | 60 | 1022.7 |
| 20260901150843 | 92 | 213 | 2.0 | 5.0 | 0.00 | 0.00 | 0.00 | 61 | 1022.9 |
| 20260901150341 | 92 | 98 | 3.0 | 6.0 | 0.00 | 0.00 | 0.00 | 61 | 1022.8 |
| 20260901145838 | 92 | 255 | 4.0 | 7.0 | 0.00 | 0.00 | 0.00 | 61 | 1022.9 |
| 20260901145333 | 91 | 144 | 0.0 | 1.0 | 0.00 | 0.00 | 0.00 | 65 | 1023.1 |
| 20260901144828 | 90 | 146 | 2.0 | 3.0 | 0.00 | 0.00 | 0.00 | 66 | 1023.1 |
| 20260901144324 | 90 | 149 | 0.0 | 3.0 | 0.00 | 0.00 | 0.00 | 66 | 1023.1 |
| 20260901143819 | 89 | 108 | 0.0 | 5.0 | 0.00 | 0.00 | 0.00 | 67 | 1023.2 |
| 20260901143316 | 89 | 142 | 3.0 | 3.0 | 0.00 | 0.00 | 0.00 | 67 | 1022.9 |
| 20260901142812 | 88 | 146 | 0.0 | 3.0 | 0.00 | 0.00 | 0.00 | 70 | 1022.9 |
| 20260901142310 | 87 | 154 | 1.0 | 5.0 | 0.00 | 0.00 | 0.00 | 71 | 1023.2 |
| 20260901141806 | 87 | 125 | 0.0 | 2.0 | 0.00 | 0.00 | 0.00 | 71 | 1022.9 |
| 20260901141301 | 87 | 137 | 1.0 | 5.0 | 0.00 | 0.00 | 0.00 | 72 | 1022.9 |
| 20260901140759 | 86 | 179 | 2.0 | 2.0 | 0.00 | 0.00 | 0.00 | 72 | 1023.2 |
| 20260901140258 | 85 | 125 | 1.0 | 3.0 | 0.00 | 0.00 | 0.00 | 74 | 1023.2 |
| 20260901135753 | 84 | 127 | 1.0 | 2.0 | 0.00 | 0.00 | 0.00 | 75 | 1023.2 |
| 20260901135253 | 85 | 165 | 2.0 | 5.0 | 0.00 | 0.00 | 0.00 | 75 | 1023.2 |
| 20260901134749 | 84 | 143 | 1.0 | 2.0 | 0.00 | 0.00 | 0.00 | 78 | 1023.4 |
| 20260901134248 | 83 | 169 | 0.0 | 1.0 | 0.00 | 0.00 | 0.00 | 78 | 1023.4 |
| 20260901133743 | 82 | 131 | 0.0 | 1.0 | 0.00 | 0.00 | 0.00 | 79 | 1023.4 |
| 20260901133243 | 82 | 123 | 1.0 | 3.0 | 0.00 | 0.00 | 0.00 | 80 | 1023.3 |
| 20260901132741 | 81 | 124 | 0.0 | 2.0 | 0.00 | 0.00 | 0.00 | 83 | 1023.4 |
| 20260901132236 | 78 | 132 | 0.0 | 1.0 | 0.00 | 0.00 | 0.00 | 89 | 1023.3 |
| 20260901131731 | 75 | 149 | 1.0 | 1.0 | 0.00 | 0.00 | 0.00 | 97 | 1023.4 |
| 20260901131230 | 74 | 134 | 0.0 | 2.0 | 0.00 | 0.00 | 0.00 | 99 | 1023.5 |
| 20260901130726 | 74 | 119 | 1.0 | 2.0 | 0.00 | 0.00 | 0.00 | 99 | 1023.3 |
| 20260901130225 | 73 | 127 | 1.0 | 1.0 | 0.00 | 0.00 | 0.00 | 99 | 1023.3 |
| 20260901125722 | 73 | 129 | 0.0 | 1.0 | 0.00 | 0.00 | 0.00 | 99 | 1023.5 |
| 20260901125218 | 73 | 120 | 0.0 | 0.0 | 0.00 | 0.00 | 0.00 | 99 | 1023.5 |
| 20260901124712 | 72 | 122 | 0.0 | 0.0 | 0.00 | 0.00 | 0.00 | 99 | 1023.5 |
| 20260901124207 | 72 | 120 | 0.0 | 0.0 | 0.00 | 0.00 | 0.00 | 99 | 1023.5 |
| 20260901123707 | 71 | 120 | 0.0 | 0.0 | 0.00 | 0.00 | 0.00 | 99 | 1023.4 |
| 20260901123202 | 71 | 120 | 0.0 | 0.0 | 0.00 | 0.00 | 0.00 | 99 | 1023.3 |
| 20260901122700 | 71 | 120 | 0.0 | 0.0 | 0.00 | 0.00 | 0.00 | 99 | 1023.4 |
| 20260901122155 | 70 | 120 | 0.0 | 0.0 | 0.00 | 0.00 | 0.00 | 99 | 1023.3 |
| 20260901121649 | 69 | 120 | 0.0 | 0.0 | 0.00 | 0.00 | 0.00 | 99 | 1023.3 |
| 20260901121145 | 69 | 120 | 0.0 | 0.0 | 0.00 | 0.00 | 0.00 | 99 | 1023.5 |
| 20260901120644 | 69 | 120 | 0.0 | 0.0 | 0.00 | 0.00 | 0.00 | 99 | 1023.3 |
| 20260901120140 | 69 | 120 | 0.0 | 0.0 | 0.00 | 0.00 | 0.00 | 99 | 1023.3 |
| 20260901115635 | 69 | 120 | 0.0 | 0.0 | 0.00 | 0.00 | 0.00 | 99 | 1023.2 |
| 20260901115131 | 68 | 120 | 0.0 | 0.0 | 0.00 | 0.00 | 0.00 | 99 | 1023.2 |
| 20260901114628 | 68 | 121 | 0.0 | 0.0 | 0.00 | 0.00 | 0.00 | 99 | 1023.1 |
| 20260901114126 | 68 | 121 | 0.0 | 0.0 | 0.00 | 0.00 | 0.00 | 99 | 1022.9 |
| 20260901113625 | 68 | 121 | 0.0 | 0.0 | 0.00 | 0.00 | 0.00 | 99 | 1022.9 |
| 20260901113121 | 68 | 121 | 0.0 | 0.0 | 0.00 | 0.00 | 0.00 | 99 | 1023.1 |
| 20260901112615 | 68 | 120 | 0.0 | 0.0 | 0.00 | 0.00 | 0.00 | 99 | 1022.7 |
| 20260901112109 | 68 | 122 | 0.0 | 0.0 | 0.00 | 0.00 | 0.00 | 99 | 1022.5 |
| 20260901111609 | 68 | 123 | 0.0 | 0.0 | 0.00 | 0.00 | 0.00 | 99 | 1022.6 |
| 20260901111107 | 68 | 123 | 0.0 | 0.0 | 0.00 | 0.00 | 0.00 | 99 | 1022.7 |
| 20260901110603 | 68 | 123 | 0.0 | 0.0 | 0.00 | 0.00 | 0.00 | 99 | 1022.4 |
| 20260901110058 | 68 | 123 | 0.0 | 0.0 | 0.00 | 0.00 | 0.00 | 99 | 1022.4 |
| 20260901105555 | 68 | 122 | 0.0 | 0.0 | 0.00 | 0.00 | 0.00 | 99 | 1022.3 |
| 20260901105054 | 68 | 122 | 0.0 | 0.0 | 0.00 | 0.00 | 0.00 | 99 | 1022.3 |
| 20260901104550 | 68 | 122 | 0.0 | 0.0 | 0.00 | 0.00 | 0.00 | 99 | 1022.1 |
| 20260901104040 | 68 | 122 | 0.0 | 0.0 | 0.00 | 0.00 | 0.00 | 99 | 1022.2 |
| 20260901103534 | 68 | 122 | 0.0 | 0.0 | 0.00 | 0.00 | 0.00 | 99 | 1022.1 |
| 20260901103030 | 68 | 122 | 0.0 | 0.0 | 0.00 | 0.00 | 0.00 | 99 | 1022.0 |
| 20260901102530 | 68 | 122 | 0.0 | 0.0 | 0.00 | 0.00 | 0.00 | 99 | 1022.0 |
| 20260901102024 | 68 | 122 | 0.0 | 0.0 | 0.00 | 0.00 | 0.00 | 99 | 1021.9 |
| 20260901101520 | 68 | 122 | 0.0 | 0.0 | 0.00 | 0.00 | 0.00 | 99 | 1021.8 |
| 20260901101019 | 68 | 122 | 0.0 | 0.0 | 0.00 | 0.00 | 0.00 | 99 | 1021.9 |
| 20260901100514 | 68 | 122 | 0.0 | 0.0 | 0.00 | 0.00 | 0.00 | 99 | 1021.8 |
| 20260901100014 | 68 | 122 | 0.0 | 0.0 | 0.00 | 0.00 | 0.00 | 99 | 1021.7 |
| 20260901095512 | 69 | 122 | 0.0 | 0.0 | 0.00 | 0.00 | 0.00 | 99 | 1021.7 |
| 20260901095010 | 69 | 122 | 0.0 | 0.0 | 0.00 | 0.00 | 0.00 | 99 | 1021.7 |
| 20260901094505 | 69 | 122 | 0.0 | 0.0 | 0.00 | 0.00 | 0.00 | 99 | 1021.5 |
| 20260901094004 | 69 | 122 | 0.0 | 0.0 | 0.00 | 0.00 | 0.00 | 99 | 1021.3 |
| 20260901093504 | 69 | 122 | 0.0 | 0.0 | 0.00 | 0.00 | 0.00 | 99 | 1021.4 |
| 20260901092959 | 69 | 122 | 0.0 | 0.0 | 0.00 | 0.00 | 0.00 | 99 | 1021.5 |
| 20260901092454 | 69 | 122 | 0.0 | 0.0 | 0.00 | 0.00 | 0.00 | 99 | 1021.4 |
| 20260901091945 | 69 | 122 | 0.0 | 0.0 | 0.00 | 0.00 | 0.00 | 99 | 1021.4 |
| 20260901091440 | 69 | 122 | 0.0 | 0.0 | 0.00 | 0.00 | 0.00 | 99 | 1021.3 |
| 20260901090935 | 69 | 122 | 0.0 | 0.0 | 0.00 | 0.00 | 0.00 | 99 | 1021.5 |
| 20260901090435 | 69 | 122 | 0.0 | 0.0 | 0.00 | 0.00 | 0.00 | 99 | 1021.3 |
| 20260901085930 | 69 | 122 | 0.0 | 0.0 | 0.00 | 0.00 | 0.00 | 99 | 1021.2 |
| 20260901085426 | 69 | 122 | 0.0 | 0.0 | 0.00 | 0.00 | 0.00 | 99 | 1021.1 |
| 20260901084922 | 69 | 122 | 0.0 | 0.0 | 0.00 | 0.00 | 0.00 | 99 | 1021.2 |
| 20260901084418 | 69 | 122 | 0.0 | 0.0 | 0.00 | 0.00 | 0.00 | 99 | 1021.1 |
| 20260901083913 | 69 | 122 | 0.0 | 0.0 | 0.00 | 0.00 | 0.00 | 99 | 1021.1 |
| 20260901083408 | 69 | 122 | 0.0 | 0.0 | 0.00 | 0.00 | 0.00 | 99 | 1021.1 |
| 20260901082906 | 70 | 122 | 0.0 | 0.0 | 0.00 | 0.00 | 0.00 | 99 | 1021.2 |
| 20260901082401 | 70 | 122 | 0.0 | 0.0 | 0.00 | 0.00 | 0.00 | 99 | 1021.0 |
| 20260901081856 | 70 | 122 | 0.0 | 0.0 | 0.00 | 0.00 | 0.00 | 99 | 1021.0 |
| 20260901081352 | 70 | 122 | 0.0 | 0.0 | 0.00 | 0.00 | 0.00 | 99 | 1020.9 |
| 20260901080851 | 69 | 122 | 0.0 | 0.0 | 0.00 | 0.00 | 0.00 | 99 | 1021.0 |
| 20260901080346 | 70 | 122 | 0.0 | 0.0 | 0.00 | 0.00 | 0.00 | 99 | 1021.0 |
| 20260901075840 | 70 | 122 | 0.0 | 0.0 | 0.00 | 0.00 | 0.00 | 99 | 1021.0 |
| 20260901075336 | 70 | 122 | 0.0 | 0.0 | 0.00 | 0.00 | 0.00 | 99 | 1020.9 |
| 20260901074830 | 70 | 122 | 0.0 | 0.0 | 0.00 | 0.00 | 0.00 | 99 | 1021.1 |
| 20260901074324 | 70 | 122 | 0.0 | 0.0 | 0.00 | 0.00 | 0.00 | 99 | 1021.0 |
| 20260901073821 | 70 | 122 | 0.0 | 0.0 | 0.00 | 0.00 | 0.00 | 99 | 1021.0 |
| 20260901073315 | 70 | 121 | 0.0 | 0.0 | 0.00 | 0.00 | 0.00 | 99 | 1020.9 |
| 20260901072811 | 70 | 121 | 0.0 | 0.0 | 0.00 | 0.00 | 0.00 | 99 | 1021.0 |
| 20260901072309 | 70 | 121 | 0.0 | 0.0 | 0.00 | 0.00 | 0.00 | 99 | 1021.2 |
| 20260901071801 | 70 | 121 | 0.0 | 0.0 | 0.00 | 0.00 | 0.00 | 99 | 1021.3 |
| 20260901071259 | 70 | 121 | 0.0 | 0.0 | 0.00 | 0.00 | 0.00 | 99 | 1021.4 |
| 20260901070758 | 71 | 121 | 0.0 | 0.0 | 0.00 | 0.00 | 0.00 | 99 | 1021.2 |
| 20260901070254 | 70 | 121 | 0.0 | 0.0 | 0.00 | 0.00 | 0.00 | 99 | 1021.3 |
| 20260901065753 | 71 | 121 | 0.0 | 0.0 | 0.00 | 0.00 | 0.00 | 99 | 1021.4 |
| 20260901065249 | 71 | 121 | 0.0 | 0.0 | 0.00 | 0.00 | 0.00 | 99 | 1021.2 |
| 20260901064745 | 71 | 121 | 0.0 | 0.0 | 0.00 | 0.00 | 0.00 | 99 | 1021.3 |
| 20260901064241 | 71 | 121 | 0.0 | 0.0 | 0.00 | 0.00 | 0.00 | 99 | 1021.2 |
| 20260901063738 | 71 | 121 | 0.0 | 0.0 | 0.00 | 0.00 | 0.00 | 99 | 1021.3 |
| 20260901063233 | 71 | 121 | 0.0 | 0.0 | 0.00 | 0.00 | 0.00 | 99 | 1021.3 |
| 20260901062730 | 71 | 121 | 0.0 | 0.0 | 0.00 | 0.00 | 0.00 | 99 | 1021.4 |
| 20260901062225 | 71 | 121 | 0.0 | 0.0 | 0.00 | 0.00 | 0.00 | 99 | 1021.5 |
| 20260901061721 | 71 | 121 | 0.0 | 0.0 | 0.00 | 0.00 | 0.00 | 99 | 1021.6 |
| 20260901061220 | 71 | 121 | 0.0 | 0.0 | 0.00 | 0.00 | 0.00 | 99 | 1021.6 |
| 20260901060715 | 71 | 121 | 0.0 | 0.0 | 0.00 | 0.00 | 0.00 | 99 | 1021.6 |
| 20260901060205 | 71 | 121 | 0.0 | 0.0 | 0.00 | 0.00 | 0.00 | 99 | 1021.8 |
| 20260901055700 | 71 | 121 | 0.0 | 0.0 | 0.00 | 0.00 | 0.00 | 99 | 1021.7 |
| 20260901055157 | 71 | 121 | 0.0 | 0.0 | 0.00 | 0.00 | 0.00 | 99 | 1021.7 |
| 20260901054653 | 72 | 121 | 0.0 | 0.0 | 0.00 | 0.00 | 0.00 | 99 | 1021.7 |
| 20260901054149 | 72 | 121 | 0.0 | 0.0 | 0.00 | 0.00 | 0.00 | 99 | 1021.6 |
| 20260901053645 | 72 | 121 | 0.0 | 0.0 | 0.00 | 0.00 | 0.00 | 99 | 1022.0 |
| 20260901053141 | 72 | 121 | 0.0 | 0.0 | 0.00 | 0.00 | 0.00 | 99 | 1021.7 |
| 20260901052636 | 72 | 121 | 0.0 | 0.0 | 0.00 | 0.00 | 0.00 | 99 | 1021.8 |
| 20260901052131 | 72 | 122 | 0.0 | 0.0 | 0.00 | 0.00 | 0.00 | 99 | 1021.6 |
| 20260901051630 | 72 | 120 | 0.0 | 0.0 | 0.00 | 0.00 | 0.00 | 99 | 1021.8 |
| 20260901051130 | 72 | 120 | 0.0 | 0.0 | 0.00 | 0.00 | 0.00 | 99 | 1021.8 |
| 20260901050625 | 72 | 120 | 0.0 | 0.0 | 0.00 | 0.00 | 0.00 | 99 | 1021.8 |
| 20260901050120 | 72 | 120 | 0.0 | 0.0 | 0.00 | 0.00 | 0.00 | 99 | 1021.8 |
| 20260901045615 | 72 | 120 | 0.0 | 0.0 | 0.00 | 0.00 | 0.00 | 99 | 1021.8 |
| 20260901045110 | 72 | 119 | 0.0 | 0.0 | 0.00 | 0.00 | 0.00 | 99 | 1021.8 |
| 20260901044606 | 73 | 119 | 0.0 | 0.0 | 0.00 | 0.00 | 0.00 | 99 | 1021.7 |
| 20260901044102 | 73 | 120 | 0.0 | 0.0 | 0.00 | 0.00 | 0.00 | 99 | 1021.7 |
| 20260901043557 | 73 | 120 | 0.0 | 0.0 | 0.00 | 0.00 | 0.00 | 99 | 1021.8 |
| 20260901043053 | 73 | 119 | 0.0 | 0.0 | 0.00 | 0.00 | 0.00 | 99 | 1021.5 |
| 20260901042552 | 73 | 119 | 0.0 | 0.0 | 0.00 | 0.00 | 0.00 | 99 | 1021.8 |
| 20260901042048 | 73 | 119 | 0.0 | 0.0 | 0.00 | 0.00 | 0.00 | 99 | 1021.7 |
| 20260901041542 | 73 | 119 | 0.0 | 0.0 | 0.00 | 0.00 | 0.00 | 99 | 1021.8 |
| 20260901041037 | 73 | 118 | 0.0 | 0.0 | 0.00 | 0.00 | 0.00 | 99 | 1021.9 |
| 20260901040536 | 73 | 119 | 0.0 | 0.0 | 0.00 | 0.00 | 0.00 | 99 | 1021.8 |
| 20260901040037 | 73 | 119 | 0.0 | 0.0 | 0.00 | 0.00 | 0.00 | 99 | 1021.6 |
| 20260901035534 | 73 | 119 | 0.0 | 0.0 | 0.00 | 0.00 | 0.00 | 98 | 1021.6 |
| 20260901035033 | 73 | 119 | 0.0 | 0.0 | 0.00 | 0.00 | 0.00 | 98 | 1021.6 |
| 20260901034528 | 73 | 119 | 0.0 | 0.0 | 0.00 | 0.00 | 0.00 | 98 | 1021.5 |